Regional Weather Roundup
Issued by NWS

Home | Current Version | Previous Version | Graphics & Text | Print | Product List | Glossary On
Versions: 1 2 3 4 5 6 7 8 9 10 11 12 13 14 15 16 17 18 19 20 21 22 23 24 25 26 27 28 29 30 31 32 33 34 35 36 37 38 39 40 41 42 43 44 45 46 47 48 49 50
000
ASUS43 KLMK 161702
RWRKY
KENTUCKY REGIONAL WEATHER ROUNDUP
NATIONAL WEATHER SERVICE LOUISVILLE KY
1200 PM EST MON JAN 16 2017

NOTE "FAIR" INDICATES FEW OR NO CLOUDS BELOW 12,000 FEET
WITH NO SIGNIFICANT WEATHER AND/OR OBSTRUCTIONS TO VISIBILITY.

KYZ001>023-026-027-061>063-070>075-161800-
WESTERN AND SOUTH CENTRAL KENTUCKY

CITY           SKY/WX    TMP DP  RH WIND       PRES   REMARKS
PADUCAH        CLOUDY    54  51  90 SE8       30.14F
HENDERSON      CLOUDY    50  46  87 S9        30.18F
OWENSBORO      CLOUDY    52  50  93 S9        30.20F
HOPKINSVILLE   CLOUDY    52  52 100 E8        30.18F
BOWLING GREEN  CLOUDY    59  54  83 S6        30.23F
GLASGOW        NOT AVBL
$$

KYZ024-025-028>034-038-045-046-053-161800-
NORTH CENTRAL KENTUCKY

CITY           SKY/WX    TMP DP  RH WIND       PRES   REMARKS
LOUISVILLE/SDF CLOUDY    51  46  83 SE5       30.23F
LOUISVILLE/LOU CLOUDY    52  47  83 VRB5      30.24F
FORT KNOX      CLOUDY    48  48 100 E6        30.20F
$$

KYZ035>037-039>044-047>052-055>060-089>105-161800-
NORTHEAST KENTUCKY

CITY           SKY/WX    TMP DP  RH WIND       PRES   REMARKS
LEXINGTON      CLOUDY    51  48  89 S5        30.25F
COVINGTON      CLOUDY    44  43  96 SE3       30.25F FOG
FRANKFORT      CLOUDY    51  46  83 SE3       30.24F
$$

KYZ054-064>069-076>088-106>120-161800-
SOUTHEAST KENTUCKY

CITY           SKY/WX    TMP DP  RH WIND       PRES   REMARKS
JACKSON        SUNNY     55  50  83 CALM      30.27F
LONDON         CLOUDY    56  52  86 CALM      30.27F
SOMERSET       CLOUDY    54  52  94 S5        30.28F
MIDDLESBORO    CLOUDY    59  56  89 CALM      30.30F
MONTICELLO     CLOUDY    60  54  80 VRB6      30.28F
$$





USA.gov is the U.S. government's official web portal to all federal, state and local government web resources and services.